Mount Sterling, KY

2:59 AM EDT on May 26, 2017 (GMT -0400)
Mount Sterling-Montgomery County

Weather History for KIOB - December, 2012

Change the Weather History Date:

Thursday, December 27, 2012

  Actual Average Record
Temperature  
Mean Temperature 31 °F -  
Max Temperature 32 °F 42 °F 71 °F (2015)
Min Temperature 30 °F 24 °F 23 °F (2013)
Degree Days  
Heating Degree Days 34    
Moisture  
Dew Point 26 °F    
Average Humidity 82    
Maximum Humidity 93    
Minimum Humidity 69    
Precipitation  
Precipitation 0.00 in - - ()
Sea Level Pressure  
Sea Level Pressure 30.10 in    
Wind  
Wind Speed 8 mph (NW)    
Max Wind Speed 17 mph    
Max Gust Speed 23 mph    
Visibility 10 miles    
Events      
Averages and records for this station are not official NWS values.
T = Trace of Precipitation, MM = Missing Value Source: NWS Daily Summary

Daily Weather History Graph

Daily Weather History Graph

Search for Another Location

Airport or City:

Trip Planner

Search our weather history database for the weather conditions in past years. The results will help you decide how hot, cold, wet, or windy it might be!

Date:

Astronomy

Dec. 27, 2012 Rise Set
Actual Time 7:51 AM EST 5:23 PM EST
Civil Twilight 7:21 AM EST 5:53 PM EST
Nautical Twilight 6:48 AM EST 6:26 PM EST
Astronomical Twilight 6:16 AM EST 6:58 PM EST
Moon 5:05 PM EST (12/27) 7:01 AM EST (12/27)
Length of Visible Light 10h 31m
Length of Day
9h 32m
Full, 100% of the Moon is Illuminated
Dec 27
Full
Dec 28
Full
Jan 4
Last Quarter
Jan 11
New
Jan 18
First Quarter

Hourly Weather History & Observations

Time (EST) Temp. Windchill Dew Point Humidity Pressure Visibility Wind Dir Wind Speed Gust Speed Precip Events Conditions
12:15 AM 30.2 °F 19.8 °F 28.4 °F 93% 29.93 in 10.0 mi NW 13.8 mph 23.0 mph N/A   Overcast
12:35 AM 30.2 °F 18.5 °F 28.4 °F 93% 29.93 in 10.0 mi NW 17.3 mph 23.0 mph N/A   Overcast
12:55 AM 30.2 °F 20.8 °F 26.6 °F 86% 29.93 in 10.0 mi NW 11.5 mph 18.4 mph N/A   Overcast
1:15 AM 30.2 °F 20.8 °F 26.6 °F 86% 29.95 in 10.0 mi NW 11.5 mph 17.3 mph N/A   Overcast
1:35 AM 30.2 °F 20.2 °F 26.6 °F 86% 29.96 in 10.0 mi NW 12.7 mph 18.4 mph N/A   Overcast
1:55 AM 30.2 °F 19.8 °F 28.4 °F 93% 29.96 in 10.0 mi NW 13.8 mph 21.9 mph N/A   Overcast
2:15 AM 30.2 °F 20.2 °F 26.6 °F 86% 29.97 in 10.0 mi NW 12.7 mph 19.6 mph N/A   Overcast
2:35 AM 30.2 °F 20.8 °F 26.6 °F 86% 29.99 in 10.0 mi NW 11.5 mph 21.9 mph N/A   Overcast
2:55 AM 30.2 °F 23.4 °F 26.6 °F 86% 30.00 in 10.0 mi WNW 6.9 mph 18.4 mph N/A   Overcast
3:15 AM 30.2 °F 21.9 °F 28.4 °F 93% 30.00 in 10.0 mi WNW 9.2 mph - N/A   Overcast
3:35 AM 30.2 °F 22.6 °F 26.6 °F 86% 30.02 in 10.0 mi WNW 8.1 mph - N/A   Overcast
3:55 AM 30.2 °F 20.2 °F 26.6 °F 86% 30.03 in 10.0 mi NW 12.7 mph 16.1 mph N/A   Overcast
4:15 AM 30.2 °F 21.9 °F 26.6 °F 86% 30.03 in 10.0 mi NW 9.2 mph 20.7 mph N/A   Overcast
4:55 AM 30.2 °F 20.8 °F 26.6 °F 86% 30.03 in 10.0 mi NW 11.5 mph 17.3 mph N/A   Overcast
5:15 AM 30.2 °F 20.2 °F 26.6 °F 86% 30.05 in 10.0 mi NW 12.7 mph 19.6 mph N/A   Overcast
5:55 AM 30.2 °F 20.2 °F 24.8 °F 80% 30.06 in 10.0 mi NNW 12.7 mph 19.6 mph N/A   Overcast
6:15 AM 30.2 °F 21.9 °F 24.8 °F 80% 30.07 in 10.0 mi NNW 9.2 mph - N/A   Overcast
6:35 AM 30.2 °F 23.4 °F 24.8 °F 80% 30.07 in 10.0 mi NNW 6.9 mph - N/A   Overcast
6:55 AM 30.2 °F 22.6 °F 23.0 °F 75% 30.08 in 10.0 mi NNW 8.1 mph - N/A   Overcast
7:15 AM 30.2 °F 25.4 °F 24.8 °F 80% 30.08 in 10.0 mi NNW 4.6 mph - N/A   Overcast
7:35 AM 30.2 °F 24.3 °F 24.8 °F 80% 30.08 in 10.0 mi WNW 5.8 mph - N/A   Overcast
7:55 AM 30.2 °F 24.3 °F 26.6 °F 86% 30.10 in 10.0 mi WNW 5.8 mph - N/A   Overcast
8:15 AM 30.2 °F 22.6 °F 26.6 °F 86% 30.10 in 10.0 mi NW 8.1 mph - N/A   Overcast
8:35 AM 30.2 °F 23.4 °F 24.8 °F 80% 30.12 in 10.0 mi NNW 6.9 mph - N/A   Overcast
8:55 AM 30.2 °F 23.4 °F 24.8 °F 80% 30.12 in 10.0 mi NNW 6.9 mph - N/A   Overcast
9:15 AM 30.2 °F 25.4 °F 24.8 °F 80% 30.12 in 10.0 mi NNW 4.6 mph - N/A   Overcast
9:35 AM 30.2 °F 24.3 °F 24.8 °F 80% 30.13 in 10.0 mi NNW 5.8 mph - N/A   Overcast
9:55 AM 30.2 °F 23.4 °F 24.8 °F 80% 30.13 in 10.0 mi NW 6.9 mph - N/A   Overcast
10:15 AM 30.2 °F 23.4 °F 24.8 °F 80% 30.14 in 10.0 mi NW 6.9 mph - N/A   Overcast
10:35 AM 30.2 °F 24.3 °F 24.8 °F 80% 30.15 in 10.0 mi NW 5.8 mph - N/A   Overcast
10:55 AM 30.2 °F 24.3 °F 24.8 °F 80% 30.15 in 10.0 mi NW 5.8 mph - N/A   Overcast
11:15 AM 30.2 °F 24.3 °F 24.8 °F 80% 30.15 in 10.0 mi NNW 5.8 mph - N/A   Overcast
11:35 AM 30.2 °F 24.3 °F 26.6 °F 86% 30.15 in 10.0 mi NW 5.8 mph - N/A   Overcast
11:55 AM 30.2 °F 24.3 °F 24.8 °F 80% 30.15 in 10.0 mi North 5.8 mph - N/A   Overcast
12:15 PM 30.2 °F 24.3 °F 24.8 °F 80% 30.14 in 10.0 mi North 5.8 mph - N/A   Overcast
12:35 PM 30.2 °F 26.7 °F 26.6 °F 86% 30.14 in 10.0 mi NNW 3.5 mph - N/A   Overcast
12:55 PM 30.2 °F 26.7 °F 24.8 °F 80% 30.14 in 10.0 mi North 3.5 mph - N/A   Overcast
1:15 PM 30.2 °F - 26.6 °F 86% 30.13 in 10.0 mi Calm Calm - N/A   Overcast
1:35 PM 30.2 °F 26.7 °F 24.8 °F 80% 30.13 in 10.0 mi NNE 3.5 mph - N/A   Overcast
1:55 PM 30.2 °F - 24.8 °F 80% 30.12 in 10.0 mi Calm Calm - N/A   Overcast
2:15 PM 30.2 °F - 24.8 °F 80% 30.12 in 10.0 mi Calm Calm - N/A   Overcast
2:35 PM 30.2 °F 25.4 °F 23.0 °F 75% 30.12 in 10.0 mi North 4.6 mph - N/A   Overcast
2:55 PM 30.2 °F - 24.8 °F 80% 30.12 in 10.0 mi Calm Calm - N/A   Overcast
3:35 PM 32.0 °F - 24.8 °F 75% 30.13 in 10.0 mi Calm Calm - N/A   Overcast
3:55 PM 32.0 °F - 23.0 °F 69% 30.13 in 10.0 mi Calm Calm - N/A   Overcast
4:15 PM 32.0 °F - 23.0 °F 69% 30.13 in 10.0 mi Calm Calm - N/A   Overcast
4:35 PM 32.0 °F - 23.0 °F 69% 30.15 in 10.0 mi Calm Calm - N/A   Overcast
4:55 PM 32.0 °F - 24.8 °F 75% 30.16 in 10.0 mi Calm Calm - N/A   Overcast
5:15 PM 32.0 °F - 24.8 °F 75% 30.16 in 10.0 mi Calm Calm - N/A   Overcast
5:35 PM 32.0 °F - 24.8 °F 75% 30.16 in 10.0 mi Calm Calm - N/A   Overcast
5:55 PM 32.0 °F - 24.8 °F 75% 30.16 in 10.0 mi Calm Calm - N/A   Overcast
6:15 PM 32.0 °F - 23.0 °F 69% 30.16 in 10.0 mi Calm Calm - N/A   Overcast
6:35 PM 32.0 °F 28.7 °F 24.8 °F 75% 30.16 in 10.0 mi East 3.5 mph - N/A   Overcast
6:55 PM 32.0 °F - 24.8 °F 75% 30.16 in 10.0 mi Calm Calm - N/A   Overcast
7:15 PM 32.0 °F - 26.6 °F 80% 30.17 in 10.0 mi Calm Calm - N/A   Overcast
7:35 PM 32.0 °F - 24.8 °F 75% 30.16 in 10.0 mi Calm Calm - N/A   Overcast
7:55 PM 32.0 °F - 26.6 °F 80% 30.17 in 10.0 mi Calm Calm - N/A   Overcast
8:15 PM 32.0 °F 28.7 °F 24.8 °F 75% 30.17 in 10.0 mi SE 3.5 mph - N/A   Overcast
8:35 PM 30.2 °F - 26.6 °F 86% 30.17 in 10.0 mi Calm Calm - N/A   Overcast
8:55 PM 30.2 °F - 26.6 °F 86% 30.17 in 10.0 mi Calm Calm - N/A   Overcast
9:15 PM 30.2 °F - 26.6 °F 86% 30.17 in 10.0 mi Calm Calm - N/A   Overcast
9:35 PM 30.2 °F 26.7 °F 26.6 °F 86% 30.16 in 10.0 mi SSE 3.5 mph - N/A   Overcast
9:55 PM 30.2 °F - 26.6 °F 86% 30.16 in 10.0 mi Calm Calm - N/A   Overcast
10:15 PM 30.2 °F - 26.6 °F 86% 30.16 in 10.0 mi Calm Calm - N/A   Overcast
10:35 PM 30.2 °F - 26.6 °F 86% 30.16 in 10.0 mi Calm Calm - N/A   Overcast
10:55 PM 30.2 °F - 26.6 °F 86% 30.16 in 10.0 mi Calm Calm - N/A   Overcast
11:15 PM 30.2 °F - 26.6 °F 86% 30.16 in 10.0 mi Calm Calm - N/A   Overcast
11:35 PM 30.2 °F 26.7 °F 26.6 °F 86% 30.16 in 10.0 mi SSE 3.5 mph - N/A   Overcast
11:55 PM 30.2 °F 26.7 °F 24.8 °F 80% 30.15 in 10.0 mi SE 3.5 mph - N/A   Overcast